This is the latest recevied weather packets stored in our database for station/object PU5BHV. If no packets are shown the sender has not sent any weather packets the latest 1 day(s).
| Time | Temp. | Humidity | Pressure | Rain* | Wind** | Luminosity | Snow |
|---|---|---|---|---|---|---|---|
| 1778068347 | 20° C | 99% | 1021.3 hPa | 0 mm | - | 60 W/m² | - |
| 1778067440 | 20° C | 99% | 1021.2 hPa | 0 mm | - | 47 W/m² | - |
| 1778067137 | 20° C | 99% | 1021.2 hPa | 0 mm | - | 44 W/m² | - |
| 1778064412 | 19.44° C | 99% | 1020.7 hPa | 0 mm | - | 19 W/m² | - |
| 1778062595 | 19.44° C | 99% | 1020.5 hPa | 0 mm | - | 6 W/m² | - |
| 1778062292 | 19.44° C | 99% | 1020.4 hPa | 0 mm | - | 4 W/m² | - |
| 1778061991 | 19.44° C | 99% | 1020.4 hPa | 0 mm | - | 3 W/m² | - |
| 1778061688 | 19.44° C | 99% | 1020.3 hPa | 0 mm | - | 3 W/m² | - |
| 1778061083 | 19.44° C | 99% | 1020.4 hPa | 0 mm | - | 0 W/m² | - |
| 1778060478 | 19.44° C | 99% | 1020.2 hPa | 0 mm | - | 0 W/m² | - |
| 1778059873 | 19.44° C | 99% | 1020 hPa | 0 mm | - | 0 W/m² | - |
| 1778059571 | 19.44° C | 99% | 1019.9 hPa | 0 mm | - | 0 W/m² | - |
| 1778059268 | 19.44° C | 99% | 1019.9 hPa | 0 mm | - | 0 W/m² | - |
| 1778058361 | 19.44° C | 99% | 1019.9 hPa | 0 mm | - | 0 W/m² | - |
| 1778058057 | 20° C | 99% | 1020 hPa | 0 mm | - | 0 W/m² | - |
| 1778057754 | 19.44° C | 99% | 1019.8 hPa | 0 mm | - | 0 W/m² | - |
| 1778057450 | 19.44° C | 99% | 1019.9 hPa | 0 mm | - | 0 W/m² | - |
| 1778056541 | 19.44° C | 99% | 1020 hPa | 0 mm | - | 0 W/m² | - |
| 1778055935 | 19.44° C | 99% | 1019.6 hPa | 0 mm | - | 0 W/m² | - |
| 1778055329 | 19.44° C | 99% | 1019.8 hPa | 0 mm | - | 0 W/m² | - |
| 1778055026 | 19.44° C | 99% | 1019.4 hPa | 0 mm | - | 0 W/m² | - |
| 1778054118 | 19.44° C | 99% | 1019.6 hPa | 0 mm | - | 0 W/m² | - |
| 1778053512 | 19.44° C | 99% | 1019.8 hPa | 0 mm | - | 0 W/m² | - |
| 1778053209 | 19.44° C | 99% | 1019.7 hPa | 0 mm | - | 0 W/m² | - |
| 1778052907 | 19.44° C | 99% | 1019.9 hPa | 0 mm | - | 0 W/m² | - |
* Rain latest hour (hover to see other rain measurements)
** Current wind speed in m/s (hover to see current wind gust speed)